Regional Weather Roundup
Issued by NWS Boston, MA

Current Version | Previous Version | Text Only | Print | Product List | Glossary Off
Versions: 1 2 3 4 5 6 7 8 9 10 11 12 13 14 15 16 17 18 19 20 21 22 23 24 25 26 27 28 29 30 31 32 33 34 35 36 37 38 39 40 41 42 43 44 45 46 47 48 49 50
000 ASUS41 KBOX 140510 RWRBOX REGIONAL WEATHER ROUNDUP NATIONAL WEATHER SERVICE TAUNTON MA 1200 AM EST THU DEC 14 2017 NOTE: "FAIR" INDICATES FEW OR NO CLOUDS BELOW 12,000 FEET WITH NO SIGNIFICANT WEATHER AND/OR OBSTRUCTIONS TO VISIBILITY. MAZALL-140600- EASTERN MASSACHUSETTS CITY SKY/WX TMP DP RH WIND PRES REMARKS BOSTON PTCLDY 22 9 57 W20G29 29.58R WCI 7 BEVERLY CLOUDY 22 9 57 W13G22 29.55R WCI 10 LAWRENCE PTCLDY 23 10 57 W15G21 29.57R WCI 10 BEDFORD PTCLDY 20 8 60 W14G22 29.56R WCI 7 BLUE HILL N/A 19 5 54 W23G36 29.53R WCI 2 NORWOOD PTCLDY 22 8 55 W15G24 29.60R WCI 9 MARSHFIELD PTCLDY 23 7 50 SW12G22 29.58R WCI 12 PLYMOUTH CLEAR 24 6 46 W15G26 29.59R WCI 11 TAUNTON CLOUDY 23 7 50 W15 29.61R WCI 10 NEW BEDFORD PTCLDY 24 6 46 W15G28 29.61R WCI 11 $$ MAZALL-140600- CAPE COD AND THE ISLANDS CITY SKY/WX TMP DP RH WIND PRES REMARKS FALMOUTH CLEAR 23 5 46 W18G29 29.60R WCI 9 HYANNIS CLEAR 25 8 48 W12 29.58R WCI 14 CHATHAM CLEAR 25 8 48 VRB6G16 29.60R WCI 18 PROVINCETOWN MOCLDY 24 14 65 W28G36 29.58R WCI 7 NANTUCKET MOCLDY 30 16 56 W20G31 29.60R WCI 17 MARTHAS VNYRD CLEAR N/A N/A N/A W16G25 29.62R $$ MAZALL-140600- CENTRAL AND WESTERN MASSACHUSETTS CITY SKY/WX TMP DP RH WIND PRES REMARKS WORCESTER CLOUDY 15 4 61 W14G22 29.52R WCI 0 FITCHBURG CLOUDY 20 9 62 VRB3 29.57R ORANGE NOT AVBL SPRINGFIELD CLOUDY 20 7 56 W9 29.60R WCI 9 WESTFIELD CLOUDY 19 7 59 W9 29.61R WCI 8 NORTH ADAMS CLOUDY 17 6 62 W10 29.56R WCI 5 PITTSFIELD CLOUDY 15 4 61 SW9 29.52S WCI 3 $$ RIZALL-140600- RHODE ISLAND CITY SKY/WX TMP DP RH WIND PRES REMARKS PROVIDENCE MOCLDY 24 5 44 W12G23 29.62R WCI 13 NEWPORT CLOUDY 24 4 42 W10G21 29.61R WCI 14 BLOCK ISLAND CLOUDY 29 15 56 W18G28 29.62S WCI 16 SMITHFIELD PTCLDY 19 7 59 W14 29.58R WCI 6 WESTERLY CLOUDY 26 5 40 VRB5 29.63F WCI 20 $$ CTZALL-140600- CONNECTICUT CITY SKY/WX TMP DP RH WIND PRES REMARKS BRADLEY INTL CLOUDY 20 7 57 W5 29.62S WCI 13 HARTFORD CLOUDY 24 5 44 W6 29.63F WCI 17 BRIDGEPORT CLOUDY 27 7 42 W10 29.67R WCI 17 DANBURY CLOUDY 24 6 46 W7 29.64R WCI 16 GROTON CLOUDY 26 6 42 W13 29.64S WCI 15 NEW HAVEN CLOUDY 27 8 44 W9 29.65F WCI 18 CHESTER FAIR 25 5 42 VRB6 29.62R WCI 18 MERIDEN CLOUDY 24 6 46 W9 29.64F WCI 14 WILLIMANTIC CLOUDY 23 6 48 N6 29.61F WCI 16 OXFORD CLOUDY 21 8 57 SW9 29.61S WCI 11 $$ MEZ002-015-021-024-NHZ003-005-008-011-012-014-VTZ005-008-140600- NORTHERN NEW ENGLAND CITY SKY/WX TMP DP RH WIND PRES REMARKS PORTLAND ME CLEAR 17 7 64 W15G23 29.44R WCI 2 BANGOR ME CLEAR 11 3 70 SW10 29.33R WCI -3 CONCORD NH CLOUDY 18 7 62 W10 29.51R WCI 6 MANCHESTER NH CLOUDY 19 10 68 SW7 29.52R WCI 10 NASHUA NH CLOUDY 19 11 70 W9 29.56R WCI 8 PORTSMOUTH NH MOCLDY 19 9 64 W13 29.50R WCI 6 JAFFREY NH CLOUDY 16 9 74 VRB5 29.49R WCI 9 KEENE NH CLOUDY 17 10 74 W8G17 29.54R WCI 7 BURLINGTON VT CLEAR 12 0 58 NW7 29.53R WCI 1 MT. WASHINGTON BLWGSNOW -11 -11 100 W79G100 N/A VSB 0 WCI -53 $$ NYZ052-076-140600- EASTERN NEW YORK CITY SKY/WX TMP DP RH WIND PRES REMARKS ALBANY MOCLDY 19 6 57 SW10 29.61S WCI 7 NEW YORK CITY CLOUDY 28 10 46 W13 29.68R WCI 17 $$ ANZALL-140600- MARINE OBSERVATIONS STATION/POSITION TIME TEMP WIND PRES VSBY WAVE AIR SEA DIR/SP/G HT/PER (UTC) (F) (DEG/KT/KT) (MB) (MI) (FT/S) BOSTON BUOY 0450 26 48 250/ 27/ 33 1000.2R 4/ 4 BUZZARDS BAY 0400 27 270/ 27/ 31 1002.6R NANTUCKET SOUND 0450 29 43 270/ 23/ 29 1001.7R 4/ 5 MASS BAY-STELLWA 0404 25 47 280/ 25/ 33 999.0R 5/ 5 ISLE OF SHOALS 0400 22 260/ 27/ 33 997.8R S OF BLOCK IS 0443 54 N/A 10/ 8 $$ ......................KEY......................... SKY/WX - SKY CONDITION/PRESENT WEATHER TMP - TEMPERATURE IN FAHRENHEIT DWPT - DEWPOINT IN FAHRENHEIT RH - RELATIVE HUMIDITY IN PERCENT WIND - DIRECTION AND SPEED IN MPH PRES - MEAN SEA LEVEL PRESSURE IN INCHES OF HG WCI - WIND CHILL INDEX VSB - VISIBILITY IN MILES HX - HEAT INDEX TC - TEMPERATURE IN CELSIUS VRB - VARIABLE WIND DIRECTION N/A - NOT AVAILABLE

USA.gov is the U.S. government's official web portal to all federal, state and local government web resources and services.